Regional Weather Roundup
Issued by NWS

Home | Current Version | Previous Version | Graphics & Text | Print | Product List | Glossary On
Versions: 1 2 3 4 5 6 7 8 9 10 11 12 13 14 15 16 17 18 19 20 21 22 23 24 25 26 27 28 29 30 31 32 33 34 35 36 37 38 39 40 41 42 43 44 45 46 47 48 49 50
000
ASUS44 KMEG 300100
RWRTN
TENNESSEE HOURLY STATE WEATHER ROUNDUP
NATIONAL WEATHER SERVICE MEMPHIS TN
800 PM CDT SUN MAY 29 2016

TNZ002-004-019-021-049-052-054-088>092-300200-
WEST TENNESSEE

CITY           SKY/WX    TMP DP  RH WIND       PRES   REMARKS
MEMPHIS INTL   CLOUDY    82  68  62 W7        30.06R
NWS MEMPHIS      N/A     80 N/A N/A MISG        N/A
JACKSON        PTCLDY    79  71  76 W6        30.04R
DYERSBURG      CLOUDY    79  70  73 CALM      30.04S
UNION CITY     PTCLDY    81  68  65 W3        30.03S
PARIS          CLEAR     77  68  73 CALM      30.05S
LEXINGTON      CLEAR     77  70  78 CALM      30.04R
$$

TNZ008-025-027-028-033-062-065-066-300200-
NORTH MIDDLE TENNESSEE

CITY           SKY/WX    TMP DP  RH WIND       PRES   REMARKS
NASHVILLE      PTCLDY    82  64  54 W7        30.04R
CLARKSVILLE    PTCLDY    80  66  62 CALM      30.03S
COOKEVILLE     CLEAR     73  68  83 CALM      30.05R
CROSSVILLE     CLEAR     73  63  70 CALM      30.10S
$$

TNZ061-075-076-078-094-096-097-300200-
SOUTH MIDDLE TENNESSEE

CITY           SKY/WX    TMP DP  RH WIND       PRES   REMARKS
MCMINNVILLE    MOCLDY    79  66  65 CALM      30.05S
SHELBYVILLE    CLEAR     82  66  57 NW7       30.05S
$$

TNZ017-018-042-046-047-300200-
NORTHEAST TENNESSEE

CITY           SKY/WX    TMP DP  RH WIND       PRES   REMARKS
TRI CITIES     PTCLDY    72  55  55 E3        30.08F
$$

TNZ012-013-036-069-073-074-300200-
CENTRAL EAST TENNESSEE

CITY           SKY/WX    TMP DP  RH WIND       PRES   REMARKS
KNOXVILLE      CLOUDY    72  66  81 NE5       30.04F
OAK RIDGE      CLOUDY    76  64  66 E3        30.07S
GATLINBURG     CLEAR     73  66  78 CALM      30.05S
$$

TNZ083-085-099-300200-
SOUTHEAST TENNESSEE

CITY           SKY/WX    TMP DP  RH WIND       PRES   REMARKS
CHATTANOOGA    PTCLDY    85  62  46 N8        30.02R
$$

SKY/WX REPORTED AS FAIR MEANS FEW OR NO CLOUDS BELOW
12 THOUSAND FEET.





USA.gov is the U.S. government's official web portal to all federal, state and local government web resources and services.